Change the Weather History Date:

Friday, April 19, 2013

  Actual Average (KOLM) Record (KOLM)
Temperature  
Mean Temperature 52 °F 49 °F  
Max Temperature 57 °F 59 °F 78 °F (1950)
Min Temperature 48 °F 38 °F 26 °F (1964)
Degree Days  
Heating Degree Days 12 16  
Month to date heating degree days 333  
Since 1 July heating degree days 4691  
Cooling Degree Days 0 0  
Month to date cooling degree days 0  
Year to date cooling degree days 0  
Growing Degree Days 2 (Base 50)    
Moisture  
Dew Point 48 °F    
Average Humidity 91    
Maximum Humidity 100    
Minimum Humidity 77    
Precipitation  
Precipitation 0.29 in 0.11 in 2.31 in (1965)
Month to date precipitation 2.43  
Year to date precipitation 20.83  
Sea Level Pressure  
Sea Level Pressure 30.19 in    
Wind  
Wind Speed 7 mph (SW)    
Max Wind Speed 10 mph    
Max Gust Speed 20 mph    
Visibility 8 miles    
Events Rain    
T = Trace of Precipitation, MM = Missing Value Source: NWS Daily Summary

Daily Weather History Graph

Daily Weather History Graph

Search for Another Location

Airport or City:

Trip Planner

Search our weather history database for the weather conditions in past years. The results will help you decide how hot, cold, wet, or windy it might be!

Date:

Astronomy

Apr. 19, 2013 Rise Set
Actual Time 6:16 AM PDT 8:06 PM PDT
Civil Twilight 5:44 AM PDT 8:38 PM PDT
Nautical Twilight 5:05 AM PDT 9:17 PM PDT
Astronomical Twilight 4:22 AM PDT 10:01 PM PDT
Moon 1:34 PM PDT (4/19) 2:58 AM PDT (4/19)
Length of Visible Light 14h 53m
Length of Day
13h 49m
Waxing Gibbous, 62% of the Moon is Illuminated
Apr 19
Waxing Gibbous
Apr 25
Full
May 2
Last Quarter
May 9
New
May 17
First Quarter

Hourly Weather History & Observations

Time (PDT) Temp. Dew Point Humidity Pressure Visibility Wind Dir Wind Speed Gust Speed Precip Events Conditions
12:15 AM 48.2 °F 48.2 °F 100% 30.28 in 10.0 mi South 6.9 mph - N/A   Mostly Cloudy
12:35 AM 48.2 °F 48.2 °F 100% 30.27 in 10.0 mi South 8.1 mph - N/A   Overcast
12:55 AM 48.2 °F 48.2 °F 100% 30.27 in 10.0 mi South 8.1 mph - N/A   Overcast
1:15 AM 48.2 °F 48.2 °F 100% 30.26 in 10.0 mi South 9.2 mph - N/A   Overcast
1:35 AM 48.2 °F 48.2 °F 100% 30.25 in 10.0 mi South 10.4 mph - N/A   Overcast
1:55 AM 48.2 °F 48.2 °F 100% 30.24 in 10.0 mi South 9.2 mph - N/A   Overcast
2:15 AM 48.2 °F 48.2 °F 100% 30.23 in 10.0 mi South 5.8 mph - 0.01 in   Overcast
2:35 AM 48.2 °F 48.2 °F 100% 30.22 in 10.0 mi South 9.2 mph 16.1 mph 0.01 in   Overcast
2:55 AM 48.2 °F 48.2 °F 100% 30.21 in 8.0 mi South 8.1 mph - 0.01 in   Overcast
3:15 AM 48.2 °F 48.2 °F 100% 30.21 in 4.0 mi South 5.8 mph - N/A   Overcast
3:55 AM 48.2 °F 48.2 °F 100% 30.20 in 3.0 mi South 6.9 mph - 0.01 in Rain Light Rain
4:15 AM 48.2 °F 48.2 °F 100% 30.19 in 3.0 mi South 4.6 mph - 0.01 in Rain Light Rain
4:35 AM 48.2 °F 48.2 °F 100% 30.18 in 5.0 mi SSW 5.8 mph - 0.01 in   Overcast
4:55 AM 48.2 °F 48.2 °F 100% 30.17 in 3.0 mi South 6.9 mph - 0.02 in   Overcast
5:15 AM 48.2 °F 48.2 °F 100% 30.17 in 3.0 mi SSE 6.9 mph - N/A   Overcast
5:35 AM 48.2 °F 48.2 °F 100% 30.16 in 3.0 mi South 6.9 mph - 0.01 in   Overcast
5:55 AM 48.2 °F 48.2 °F 100% 30.15 in 2.5 mi South 6.9 mph - 0.01 in Rain Light Rain
6:15 AM 48.2 °F 48.2 °F 100% 30.15 in 5.0 mi South 6.9 mph - 0.02 in Rain Light Rain
6:35 AM 48.2 °F 48.2 °F 100% 30.14 in 8.0 mi South 6.9 mph - 0.03 in Rain Light Rain
6:55 AM 48.2 °F 48.2 °F 100% 30.14 in 6.0 mi SSW 5.8 mph - 0.05 in Rain Light Rain
7:15 AM 48.2 °F 48.2 °F 100% 30.13 in 6.0 mi South 8.1 mph - 0.01 in Rain Light Rain
7:55 AM 50.0 °F 48.2 °F 94% 30.12 in 9.0 mi South 5.8 mph - 0.02 in Rain Light Rain
8:15 AM 50.0 °F 48.2 °F 94% 30.12 in 9.0 mi South 10.4 mph - N/A Rain Light Rain
8:35 AM 50.0 °F 48.2 °F 94% 30.11 in 9.0 mi South 10.4 mph - 0.01 in Rain Light Rain
8:55 AM 50.0 °F 48.2 °F 94% 30.11 in 7.0 mi South 10.4 mph 18.4 mph 0.02 in Rain Light Rain
9:15 AM 50.0 °F 48.2 °F 94% 30.11 in 6.0 mi South 9.2 mph 16.1 mph N/A Rain Light Rain
9:35 AM 50.0 °F 50.0 °F 100% 30.11 in 7.0 mi South 8.1 mph - 0.02 in Rain Light Rain
9:55 AM 50.0 °F 50.0 °F 100% 30.11 in 4.0 mi South 6.9 mph - 0.03 in Rain Light Rain
10:15 AM 50.0 °F 50.0 °F 100% 30.12 in 5.0 mi SW 3.5 mph - 0.01 in Rain Light Rain
10:35 AM 50.0 °F 50.0 °F 100% 30.12 in 1.8 mi South 8.1 mph - 0.03 in Rain Light Rain
10:55 AM 51.8 °F 50.0 °F 94% 30.13 in 5.0 mi South 8.1 mph - 0.05 in Rain Light Rain
11:15 AM 51.8 °F 50.0 °F 94% 30.13 in 3.0 mi SSW 5.8 mph - 0.02 in Rain Light Rain
11:35 AM 51.8 °F 50.0 °F 94% 30.13 in 4.0 mi SSW 5.8 mph - 0.06 in Rain Light Rain
11:55 AM 51.8 °F 50.0 °F 94% 30.13 in 4.0 mi SW 4.6 mph - 0.06 in Rain Light Rain
12:15 PM 53.6 °F 50.0 °F 88% 30.14 in 10.0 mi WSW 8.1 mph - N/A   Mostly Cloudy
12:35 PM 53.6 °F 50.0 °F 88% 30.15 in 10.0 mi SW 5.8 mph - N/A Rain Light Rain
12:55 PM 53.6 °F 50.0 °F 88% 30.15 in 9.0 mi WSW 6.9 mph - N/A   Mostly Cloudy
1:15 PM 53.6 °F 48.2 °F 82% 30.15 in 10.0 mi SW 8.1 mph - N/A   Overcast
1:35 PM 53.6 °F 48.2 °F 82% 30.16 in 10.0 mi West 6.9 mph - N/A   Mostly Cloudy
1:55 PM 53.6 °F 48.2 °F 82% 30.16 in 10.0 mi WSW 8.1 mph - N/A   Mostly Cloudy
2:15 PM 55.4 °F 48.2 °F 77% 30.16 in 10.0 mi West 6.9 mph 17.3 mph N/A   Overcast
2:35 PM 57.2 °F 50.0 °F 77% 30.17 in 10.0 mi WSW 9.2 mph - 0.01 in   Mostly Cloudy
2:55 PM 55.4 °F 48.2 °F 77% 30.17 in 10.0 mi WSW 8.1 mph 17.3 mph 0.01 in   Overcast
3:15 PM 55.4 °F 48.2 °F 77% 30.17 in 10.0 mi West 8.1 mph - N/A   Overcast
3:35 PM 53.6 °F 48.2 °F 82% 30.18 in 10.0 mi WSW 5.8 mph 17.3 mph N/A   Overcast
3:55 PM 53.6 °F 48.2 °F 82% 30.19 in 10.0 mi WSW 9.2 mph 19.6 mph N/A   Overcast
4:15 PM 53.6 °F 48.2 °F 82% 30.19 in 10.0 mi WSW 8.1 mph 17.3 mph N/A   Overcast
4:35 PM 53.6 °F 48.2 °F 82% 30.20 in 10.0 mi SW 5.8 mph 17.3 mph N/A   Overcast
4:55 PM 53.6 °F 46.4 °F 77% 30.20 in 10.0 mi West 5.8 mph 17.3 mph N/A   Overcast
5:15 PM 53.6 °F 46.4 °F 77% 30.20 in 10.0 mi WSW 9.2 mph 18.4 mph N/A   Overcast
5:35 PM 53.6 °F 46.4 °F 77% 30.21 in 10.0 mi WSW 9.2 mph 16.1 mph N/A   Overcast
5:55 PM 53.6 °F 46.4 °F 77% 30.21 in 10.0 mi WSW 10.4 mph 18.4 mph N/A   Overcast
6:15 PM 51.8 °F 46.4 °F 82% 30.23 in 10.0 mi WSW 10.4 mph 18.4 mph N/A   Overcast
6:35 PM 51.8 °F 46.4 °F 82% 30.23 in 10.0 mi WSW 9.2 mph 17.3 mph N/A   Overcast
6:55 PM 50.0 °F 46.4 °F 87% 30.23 in 10.0 mi West 8.1 mph - N/A   Overcast
7:15 PM 50.0 °F 46.4 °F 87% 30.23 in 10.0 mi WSW 6.9 mph - N/A   Overcast
7:35 PM 50.0 °F 46.4 °F 87% 30.24 in 10.0 mi WSW 6.9 mph - N/A   Overcast
7:55 PM 50.0 °F 44.6 °F 82% 30.24 in 10.0 mi SW 6.9 mph - N/A   Overcast
8:15 PM 50.0 °F 46.4 °F 87% 30.25 in 10.0 mi WSW 4.6 mph - N/A   Overcast
8:35 PM 50.0 °F 46.4 °F 87% 30.26 in 10.0 mi SW 5.8 mph - N/A   Overcast
8:55 PM 50.0 °F 46.4 °F 87% 30.26 in 10.0 mi WSW 8.1 mph - N/A   Overcast
9:15 PM 50.0 °F 46.4 °F 87% 30.26 in 7.0 mi WSW 5.8 mph - N/A   Overcast
9:35 PM 48.2 °F 46.4 °F 93% 30.27 in 8.0 mi WSW 4.6 mph - N/A   Overcast
9:55 PM 48.2 °F 46.4 °F 93% 30.27 in 10.0 mi WSW 8.1 mph - N/A   Overcast
10:15 PM 48.2 °F 46.4 °F 93% 30.27 in 10.0 mi West 4.6 mph - N/A   Overcast
10:35 PM 48.2 °F 46.4 °F 93% 30.28 in 10.0 mi SW 4.6 mph - N/A   Overcast
10:55 PM 48.2 °F 46.4 °F 93% 30.28 in 10.0 mi SW 4.6 mph - N/A   Overcast
11:35 PM 48.2 °F 46.4 °F 93% 30.28 in 10.0 mi Calm Calm - N/A   Overcast
11:55 PM 48.2 °F 44.6 °F 87% 30.28 in 10.0 mi SW 4.6 mph - N/A   Overcast